Location: *
(44.1392°N, 4.8079°E)
Time: 14:25:34
(UTC+00:00)

Lacrosse 5 rocket - Pass Details

Date: 21 October 2021
Orbit: 459 x 633 km, 57.0° (Epoch: 04 December)

Event Time Altitude Azimuth Distance (km) Brightness Sun altitude
Exits shadow 05:09:33 12° 298° (WNW) 1,762 3.3 -10.3°
Maximum altitude 05:12:19 20° 342° (NNW) 1,375 3.1 -9.8°
Drops below altitude 10° 05:15:42 10° 31° (NNE) 1,966 4.5 -9.2°
Sets 05:18:33 0° 48° (NE) 2,897 5.7 -8.7°
